CAPE MAY COURT HOUSE - NJ NJ-MESONET current weather conditions

sailwx.info

Wind from 192

Air temperature 32.2° C
Dewpoint 23.9° C

Last reported at 2020-Jul-06 16:55 UTC.
Time now 2020-Jul-06 17:18 UTC

Location: N 39°07' W 074°47'.
View on Google Maps.

See reports from other nearby stations

  
Tides and Currents Weather Stations Pressure Air Temp Water Temp Dewpoint Dewpoint Depression Visibility Wind Speed Wind Dir Waves Ship Positions
date/time (UTC)wind fromknots sea level pressurealtimeterstation pressurevisibilityair tempwater tempwave heightnotes
2020-Jul-06 16:55 192 32.2
2020-Jul-06 16:50 209 32.2
2020-Jul-06 16:45 197 32.8
2020-Jul-06 16:40 152 32.8
2020-Jul-06 16:35 220 32.8
2020-Jul-06 16:30 236 32.8
2020-Jul-06 16:25 174 4 gusting 5 32.8
2020-Jul-06 16:20 193 32.2
2020-Jul-06 16:15 226 32.8
2020-Jul-06 16:10 265 33.9
2020-Jul-06 16:05 276 2 gusting 6 33.3
2020-Jul-06 16:00 281 0 gusting 6 33.3
2020-Jul-06 15:55 240 33.3
2020-Jul-06 15:50 311 33.3
2020-Jul-06 15:45 200 3 gusting 4 33.9
2020-Jul-06 15:40 218 33.3
2020-Jul-06 15:35 296 33.3
2020-Jul-06 15:30 213 32.8
2020-Jul-06 15:25 241 1 gusting 6 32.8
2020-Jul-06 15:20 162 32.8
2020-Jul-06 15:15 279 1 gusting 8 32.2
2020-Jul-06 15:10 222 32.2
2020-Jul-06 15:05 220 31.7
2020-Jul-06 15:00 240 4 gusting 8 32.2
2020-Jul-06 14:55 287 32.2
2020-Jul-06 14:50 277 1 gusting 4 32.8
2020-Jul-06 14:45 252 1 gusting 5 32.2
2020-Jul-06 14:40 223 3 gusting 5 31.7
2020-Jul-06 14:35 220 4 gusting 6 31.7
2020-Jul-06 14:30 224 1 gusting 6 31.7
2020-Jul-06 14:25 235 3 gusting 4 31.7
2020-Jul-06 14:20 243 1 gusting 4 31.1
2020-Jul-06 14:15 188 31.1
2020-Jul-06 14:10 248 1 gusting 6 31.1
2020-Jul-06 14:05 215 4 gusting 6 30.6
2020-Jul-06 14:00 226 31.1
2020-Jul-06 13:55 202 0 gusting 6 30.6
2020-Jul-06 13:50 254 31.1
2020-Jul-06 13:45 225 4 gusting 6 30.6
2020-Jul-06 13:40 241 30.6
2020-Jul-06 13:35 228 5 gusting 6 30.0
2020-Jul-06 13:30 246 2 gusting 6 30.0
2020-Jul-06 13:25 242 2 gusting 6 29.4
2020-Jul-06 13:20 254 0 gusting 5 29.4
2020-Jul-06 13:15 244 29.4
2020-Jul-06 13:10 276 29.4
2020-Jul-06 13:05 219 0 gusting 7 28.9
2020-Jul-06 13:00 220 4 gusting 8 28.9
2020-Jul-06 12:55 224 4 gusting 6 28.3
2020-Jul-06 12:50 232 4 gusting 7 29.4
2020-Jul-06 12:45 343 1 gusting 4 29.4
2020-Jul-06 12:40 208 29.4
2020-Jul-06 12:35 210 4 gusting 5 28.9
2020-Jul-06 12:30 327 28.9
2020-Jul-06 12:25 188 28.9
2020-Jul-06 12:20 223 3 gusting 4 28.3
2020-Jul-06 12:15 248 27.8
2020-Jul-06 12:10 213 2 gusting 4 27.2
2020-Jul-06 12:05 353 27.2
2020-Jul-06 12:00 228 27.2
2020-Jul-06 11:55 222 26.7
2020-Jul-06 11:50 233 26.1
2020-Jul-06 11:45 168 1 gusting 2 26.1
2020-Jul-06 11:40 192 26.1
2020-Jul-06 11:35 244 25.0
2020-Jul-06 11:30 230 25.0
2020-Jul-06 11:25 222 24.4
2020-Jul-06 11:20 231 24.4
2020-Jul-06 11:15 241 24.4
2020-Jul-06 11:10 212 24.4
2020-Jul-06 11:05 215 24.4
2020-Jul-06 11:00 228 23.9
2020-Jul-06 10:55 239 23.3
2020-Jul-06 10:50 230 23.3
2020-Jul-06 10:45 170 22.8
2020-Jul-06 10:40 225 22.8
2020-Jul-06 10:35 225 22.8
2020-Jul-06 10:30 225 22.2
2020-Jul-06 10:25 225 21.7
2020-Jul-06 10:20 225 21.7
2020-Jul-06 10:15 225 21.1
2020-Jul-06 10:10 225 21.1
2020-Jul-06 10:05 225 21.1
2020-Jul-06 10:00 225 21.1
2020-Jul-06 09:55 225 21.1
2020-Jul-06 09:50 225 21.1
2020-Jul-06 09:45 225 21.1
2020-Jul-06 09:40 225 21.1
2020-Jul-06 09:35 225 21.1
2020-Jul-06 09:30 225 21.1
2020-Jul-06 09:25 225 21.1
2020-Jul-06 09:20 225 21.1
2020-Jul-06 09:15 225 21.1
2020-Jul-06 09:10 255 21.7
2020-Jul-06 09:05 255 21.7
2020-Jul-06 09:00 255 21.7
2020-Jul-06 08:55 255 21.7
2020-Jul-06 08:50 255 21.7
2020-Jul-06 08:45 255 21.7
2020-Jul-06 08:40 255 21.7
2020-Jul-06 08:35 255 22.2
2020-Jul-06 08:30 255 22.2
2020-Jul-06 08:25 255 22.2
2020-Jul-06 08:20 255 22.2
2020-Jul-06 08:15 255 22.2
2020-Jul-06 08:10 203 22.2
2020-Jul-06 08:05 203 22.2
2020-Jul-06 08:00 199 22.8
2020-Jul-06 07:55 235 22.8
2020-Jul-06 07:50 235 22.8
2020-Jul-06 07:45 238 22.8
2020-Jul-06 07:40 238 22.8
2020-Jul-06 07:35 230 22.8
2020-Jul-06 07:30 230 22.8
2020-Jul-06 07:25 230 22.8
2020-Jul-06 07:20 226 22.8
2020-Jul-06 07:15 219 23.3
2020-Jul-06 07:10 270 23.3
2020-Jul-06 07:05 221 23.3
2020-Jul-06 07:00 237 23.3
2020-Jul-06 06:55 216 23.3
2020-Jul-06 06:50 221 23.3
2020-Jul-06 06:45 216 23.3
2020-Jul-06 06:40 220 1 gusting 2 23.9
2020-Jul-06 06:35 227 23.9
2020-Jul-06 06:30 232 23.9
2020-Jul-06 06:25 223 23.3
2020-Jul-06 06:20 223 23.9
2020-Jul-06 06:15 238 23.9
2020-Jul-06 06:10 216 23.9
2020-Jul-06 06:05 231 23.9
2020-Jul-06 06:00 197 23.9
2020-Jul-06 05:55 194 23.9
2020-Jul-06 05:50 202 23.9
2020-Jul-06 05:45 281 24.4
2020-Jul-06 05:40 233 24.4
2020-Jul-06 05:35 203 24.4
2020-Jul-06 05:30 241 24.4
2020-Jul-06 05:25 227 24.4
2020-Jul-06 05:20 231 24.4
2020-Jul-06 05:15 136 4 gusting 4 24.4
2020-Jul-06 05:10 231 24.4
2020-Jul-06 05:05 229 24.4
2020-Jul-06 05:00 229 0 gusting 4 24.4
2020-Jul-06 04:55 220 24.4
2020-Jul-06 04:50 252 24.4
2020-Jul-06 04:45 180 24.4
2020-Jul-06 04:40 190 25.0
2020-Jul-06 04:35 223 25.0
2020-Jul-06 04:30 232 25.0
2020-Jul-06 04:25 229 25.0
2020-Jul-06 04:20 228 25.0
2020-Jul-06 04:15 266 25.0
2020-Jul-06 04:10 226 1 gusting 2 25.0
2020-Jul-06 04:05 226 25.0
2020-Jul-06 04:00 224 25.6
2020-Jul-06 03:55 216 25.6
2020-Jul-06 03:50 234 25.6
2020-Jul-06 03:45 210 25.6
2020-Jul-06 03:40 264 25.6
2020-Jul-06 03:35 246 25.6
2020-Jul-06 03:30 243 25.6
2020-Jul-06 03:25 224 25.6
2020-Jul-06 03:20 224 25.6
2020-Jul-06 03:15 201 25.6
2020-Jul-06 03:10 210 2 gusting 4 25.6
2020-Jul-06 03:05 267 25.6
2020-Jul-06 03:00 104 25.0
2020-Jul-06 02:55 226 25.0
2020-Jul-06 02:50 244 25.0
2020-Jul-06 02:45 234 25.0
2020-Jul-06 02:40 229 24.4
2020-Jul-06 02:35 268 24.4
2020-Jul-06 02:30 277 24.4
2020-Jul-06 02:25 224 24.4
2020-Jul-06 02:20 282 24.4
2020-Jul-06 02:15 272 24.4
2020-Jul-06 02:10 245 24.4
2020-Jul-06 02:05 245 25.0
2020-Jul-06 02:00 257 25.0
2020-Jul-06 01:55 230 25.0
2020-Jul-06 01:50 284 25.0
2020-Jul-06 01:45 254 24.4
2020-Jul-06 01:40 223 25.0
2020-Jul-06 01:35 222 25.0
2020-Jul-06 01:30 222 24.4
2020-Jul-06 01:25 238 24.4
2020-Jul-06 01:20 238 24.4
2020-Jul-06 01:15 236 25.0
2020-Jul-06 01:10 232 25.0
2020-Jul-06 01:05 235 25.0
2020-Jul-06 01:00 235 25.0
2020-Jul-06 00:55 235 25.0
2020-Jul-06 00:50 229 25.0
2020-Jul-06 00:45 180 25.6
2020-Jul-06 00:40 204 25.6
2020-Jul-06 00:35 204 25.6
2020-Jul-06 00:30 168 26.1
2020-Jul-06 00:25 182 26.1
2020-Jul-06 00:20 224 26.1
2020-Jul-06 00:15 186 26.1
2020-Jul-06 00:10 214 26.1
2020-Jul-06 00:05 202 26.7
2020-Jul-06 00:00 207 26.7
2020-Jul-05 23:55 213 26.7
2020-Jul-05 23:50 216 26.7
2020-Jul-05 23:45 252 26.7
2020-Jul-05 23:40 197 2 gusting 4 26.7
2020-Jul-05 23:35 212 1 gusting 6 26.7
2020-Jul-05 23:30 230 3 gusting 6 26.7
2020-Jul-05 23:25 191 27.2
2020-Jul-05 23:20 147 27.2
2020-Jul-05 23:15 211 1 gusting 6 27.2
2020-Jul-05 23:10 178 27.8
2020-Jul-05 23:05 100 1 gusting 4 27.8
2020-Jul-05 23:00 086 2 gusting 6 27.8
2020-Jul-05 22:55 264 4 gusting 6 27.8
2020-Jul-05 22:50 227 5 gusting 6 27.8
2020-Jul-05 22:45 235 0 gusting 5 27.8
2020-Jul-05 22:40 239 3 gusting 5 28.3
2020-Jul-05 22:35 297 27.8
2020-Jul-05 22:30 191 2 gusting 8 27.8
2020-Jul-05 22:25 175 4 gusting 7 27.8
2020-Jul-05 22:20 183 1 gusting 6 28.3
2020-Jul-05 22:15 244 1 gusting 6 28.3
2020-Jul-05 22:10 207 28.3
2020-Jul-05 22:05 199 1 gusting 6 28.3
2020-Jul-05 22:00 213 3 gusting 5 28.9
2020-Jul-05 21:55 137 0 gusting 4 28.3
2020-Jul-05 21:50 199 28.3
2020-Jul-05 21:45 154 1 gusting 5 28.3
2020-Jul-05 21:40 166 28.3
2020-Jul-05 21:35 207 28.9
2020-Jul-05 21:30 214 28.9
2020-Jul-05 21:25 184 2 gusting 5 28.9
2020-Jul-05 21:20 204 2 gusting 4 28.9
2020-Jul-05 21:15 063 28.9
2020-Jul-05 21:10 228 2 gusting 8 28.9
2020-Jul-05 21:05 197 4 gusting 6 29.4
2020-Jul-05 21:00 155 3 gusting 4 29.4
2020-Jul-05 20:55 231 1 gusting 6 29.4
2020-Jul-05 20:50 206 4 gusting 5 30.0
2020-Jul-05 20:45 234 1 gusting 5 30.6
2020-Jul-05 20:40 228 1 gusting 3 30.6
2020-Jul-05 20:35 232 2 gusting 6 30.0
2020-Jul-05 20:30 189 2 gusting 6 30.0
2020-Jul-05 20:25 190 30.0
2020-Jul-05 20:20 215 4 gusting 6 30.6
2020-Jul-05 20:15 201 2 gusting 6 30.6
2020-Jul-05 20:10 230 4 gusting 6 31.1
2020-Jul-05 20:05 158 2 gusting 6 31.7
2020-Jul-05 20:00 155 2 gusting 8 31.7
2020-Jul-05 19:55 198 0 gusting 8 31.1
2020-Jul-05 19:50 206 5 gusting 11 31.7
2020-Jul-05 19:45 175 0 gusting 8 32.2
2020-Jul-05 19:40 152 32.2
2020-Jul-05 19:35 190 4 gusting 4 32.2
2020-Jul-05 19:30 210 1 gusting 6 31.7
2020-Jul-05 19:25 157 2 gusting 6 31.1
2020-Jul-05 19:20 120 2 gusting 9 31.1
2020-Jul-05 19:15 218 2 gusting 10 31.1
2020-Jul-05 19:10 226 0 gusting 7 31.1
2020-Jul-05 19:05 120 1 gusting 10 30.6
2020-Jul-05 19:00 157 5 gusting 7 31.1
2020-Jul-05 18:55 151 1 gusting 13 31.1
2020-Jul-05 18:50 193 5 gusting 6 31.1
2020-Jul-05 18:45 162 0 gusting 8 31.1
2020-Jul-05 18:40 187 2 gusting 12 31.1
2020-Jul-05 18:35 192 4 gusting 8 31.1
2020-Jul-05 18:30 240 2 gusting 8 30.6
2020-Jul-05 18:25 186 1 gusting 7 31.1
2020-Jul-05 18:20 198 3 gusting 7 31.1
2020-Jul-05 18:15 224 2 gusting 7 30.6
2020-Jul-05 18:10 228 1 gusting 6 31.1
2020-Jul-05 18:05 173 30.6
2020-Jul-05 18:00 166 1 gusting 9 30.6
2020-Jul-05 17:55 191 9 gusting 9 31.1
2020-Jul-05 17:50 248 1 gusting 7 31.7
2020-Jul-05 17:45 220 4 gusting 6 32.2
2020-Jul-05 17:40 166 2 gusting 6 32.2
2020-Jul-05 17:35 198 1 gusting 9 31.7
2020-Jul-05 17:30 270 2 gusting 7 31.7
2020-Jul-05 17:25 212 32.2
2020-Jul-05 17:20 233 7 gusting 7 32.2
2020-Jul-05 17:15 205 6 gusting 6 32.2
2020-Jul-05 17:10 340 1 gusting 10 31.7
2020-Jul-05 17:05 344 0 gusting 6 32.2
2020-Jul-05 17:00 334 2 gusting 7 31.7
2020-Jul-05 16:55 222 4 gusting 9 31.1
2020-Jul-05 16:50 208 31.7
2020-Jul-05 16:45 216 3 gusting 7 31.1
2020-Jul-05 16:40 019 1 gusting 9 30.6
2020-Jul-05 16:35 225 5 gusting 7 31.1
2020-Jul-05 16:30 240 2 gusting 8 31.1
2020-Jul-05 16:25 279 5 gusting 11 31.1
2020-Jul-05 16:20 246 31.1
2020-Jul-05 16:15 306 2 gusting 6 31.1
2020-Jul-05 16:10 234 3 gusting 6 31.1
2020-Jul-05 16:05 298 1 gusting 6 31.1
2020-Jul-05 16:00 249 2 gusting 8 30.6
2020-Jul-05 15:55 224 1 gusting 8 30.6
2020-Jul-05 15:50 232 3 gusting 8 30.6
2020-Jul-05 15:45 216 4 gusting 6 30.6
2020-Jul-05 15:40 212 4 gusting 7 30.0
2020-Jul-05 15:35 244 6 gusting 7 30.6
2020-Jul-05 15:30 252 1 gusting 8 29.4
2020-Jul-05 15:25 211 6 gusting 8 30.0
2020-Jul-05 15:20 241 4 gusting 6 30.0
2020-Jul-05 15:15 250 0 gusting 6 30.0
2020-Jul-05 15:10 197 0 gusting 7 30.0
2020-Jul-05 15:05 220 3 gusting 6 30.6
2020-Jul-05 15:00 298 1 gusting 9 30.0
2020-Jul-05 14:55 196 2 gusting 8 30.0
2020-Jul-05 14:50 223 3 gusting 6 30.0
2020-Jul-05 14:45 036 29.4
2020-Jul-05 14:40 220 1 gusting 8 29.4
2020-Jul-05 14:35 246 2 gusting 8 29.4
2020-Jul-05 14:30 309 1 gusting 6 29.4
2020-Jul-05 14:25 203 0 gusting 5 30.0
2020-Jul-05 14:20 218 5 gusting 5 29.4
2020-Jul-05 14:15 323 2 gusting 7 28.3
2020-Jul-05 14:10 197 1 gusting 6 28.9
2020-Jul-05 14:05 240 2 gusting 6 28.3
2020-Jul-05 14:00 220 5 gusting 7 28.3
2020-Jul-05 13:55 232 28.3
2020-Jul-05 13:50 231 3 gusting 4 28.3
2020-Jul-05 13:45 320 0 gusting 6 27.8
2020-Jul-05 13:40 226 5 gusting 6 28.3
2020-Jul-05 13:35 215 0 gusting 5 27.8
2020-Jul-05 13:30 337 1 gusting 5 27.2
2020-Jul-05 13:25 211 3 gusting 4 27.8
2020-Jul-05 13:20 225 27.2
2020-Jul-05 13:15 219 0 gusting 6 27.2
2020-Jul-05 13:10 290 27.2
2020-Jul-05 13:05 214 4 gusting 4 27.2
2020-Jul-05 13:00 232 0 gusting 3 26.7
2020-Jul-05 12:55 274 26.1
2020-Jul-05 12:50 253 27.2
2020-Jul-05 12:45 323 27.2
2020-Jul-05 12:40 124 27.2
2020-Jul-05 12:35 290 26.7
2020-Jul-05 12:30 170 27.2
2020-Jul-05 12:25 207 0 gusting 2 26.7
2020-Jul-05 12:20 167 26.1
2020-Jul-05 12:15 230 26.1
2020-Jul-05 12:10 162 0 gusting 1 26.1
2020-Jul-05 12:05 192 26.1
2020-Jul-05 12:00 170 26.1
2020-Jul-05 11:55 213 25.6
2020-Jul-05 11:50 197 25.6
2020-Jul-05 11:45 202 25.0
2020-Jul-05 11:40 189 25.0
2020-Jul-05 11:35 176 25.0
2020-Jul-05 11:30 170 25.0
2020-Jul-05 11:25 255 25.0
2020-Jul-05 11:20 267 24.4
2020-Jul-05 11:15 261 23.9
2020-Jul-05 11:10 255 23.3
2020-Jul-05 11:05 252 23.3
2020-Jul-05 11:00 261 22.8
2020-Jul-05 10:55 258 22.2
2020-Jul-05 10:50 256 21.7
2020-Jul-05 10:45 288 21.7
2020-Jul-05 10:40 290 21.7
2020-Jul-05 10:35 290 21.1
2020-Jul-05 10:30 290 21.1
2020-Jul-05 10:25 290 21.1
2020-Jul-05 10:20 290 21.1
2020-Jul-05 10:15 290 20.6
2020-Jul-05 10:10 290 20.6
2020-Jul-05 10:05 290 20.6
2020-Jul-05 10:00 290 20.0
2020-Jul-05 09:55 290 20.0
2020-Jul-05 09:50 290 20.0
2020-Jul-05 09:45 312 20.0
2020-Jul-05 09:40 313 20.6
2020-Jul-05 09:35 313 20.6
2020-Jul-05 09:30 313 20.6
2020-Jul-05 09:25 312 20.6
2020-Jul-05 09:20 277 20.6
2020-Jul-05 09:15 267 20.6
2020-Jul-05 09:10 267 20.6
2020-Jul-05 09:05 272 20.6
2020-Jul-05 09:00 292 20.6
2020-Jul-05 08:55 292 20.6
2020-Jul-05 08:50 262 20.0
2020-Jul-05 08:45 288 20.6
2020-Jul-05 08:40 264 20.6
2020-Jul-05 08:35 264 20.6
2020-Jul-05 08:30 276 20.6
2020-Jul-05 08:25 276 20.6
2020-Jul-05 08:20 291 20.0
2020-Jul-05 08:15 291 20.0
2020-Jul-05 08:10 264 20.6
2020-Jul-05 08:05 258 20.6
2020-Jul-05 08:00 297 20.6
2020-Jul-05 07:55 270 20.6
2020-Jul-05 07:50 270 20.6
2020-Jul-05 07:45 283 20.6
2020-Jul-05 07:40 283 20.6
2020-Jul-05 07:35 283 20.6
2020-Jul-05 07:30 283 20.6
2020-Jul-05 07:25 283 20.6
2020-Jul-05 07:20 272 20.6
2020-Jul-05 07:15 272 20.6
2020-Jul-05 07:10 272 20.6
2020-Jul-05 07:05 272 21.1
2020-Jul-05 07:00 272 21.1
2020-Jul-05 06:55 272 21.1
2020-Jul-05 06:50 239 21.1
2020-Jul-05 06:45 228 21.1
2020-Jul-05 06:40 228 21.1
2020-Jul-05 06:35 196 21.1
2020-Jul-05 06:30 111 21.1
2020-Jul-05 06:25 111 21.1
2020-Jul-05 06:20 193 21.7
2020-Jul-05 06:15 193 21.7
2020-Jul-05 06:10 203 21.7
2020-Jul-05 06:05 221 21.7
2020-Jul-05 06:00 221 21.7
2020-Jul-05 05:55 221 21.7
2020-Jul-05 05:50 188 21.7
2020-Jul-05 05:45 183 22.2
2020-Jul-05 05:40 225 22.2
2020-Jul-05 05:35 191 21.7
2020-Jul-05 05:30 207 21.7
2020-Jul-05 05:25 234 3 gusting 4 21.7
2020-Jul-05 05:20 177 21.7
2020-Jul-05 05:15 192 21.7
2020-Jul-05 05:10 183 0 gusting 0 21.7
2020-Jul-05 05:05 172 21.7
2020-Jul-05 05:00 269 21.7
2020-Jul-05 04:55 202 22.2
2020-Jul-05 04:50 161 21.7
2020-Jul-05 04:45 170 21.7
2020-Jul-05 04:40 237 21.7
2020-Jul-05 04:35 011 21.7
2020-Jul-05 04:30 242 21.7
2020-Jul-05 04:25 031 21.7
2020-Jul-05 04:20 005 21.7
2020-Jul-05 04:15 019 21.7
2020-Jul-05 04:10 222 21.7
2020-Jul-05 04:05 029 21.7
2020-Jul-05 04:00 029 21.7
2020-Jul-05 03:55 354 21.7
2020-Jul-05 03:50 354 21.7
2020-Jul-05 03:45 022 21.7
2020-Jul-05 03:40 054 21.7
2020-Jul-05 03:35 056 21.7
2020-Jul-05 03:30 056 21.7
2020-Jul-05 03:25 040 21.7
2020-Jul-05 03:20 031 21.7
2020-Jul-05 03:15 044 21.7
2020-Jul-05 03:10 035 21.7
2020-Jul-05 03:05 348 21.7
2020-Jul-05 03:00 030 21.7
2020-Jul-05 02:55 030 21.7
2020-Jul-05 02:50 054 21.7
2020-Jul-05 02:45 342 21.7
2020-Jul-05 02:40 102 21.7
2020-Jul-05 02:35 061 21.7
2020-Jul-05 02:30 061 21.7
2020-Jul-05 02:25 077 21.7
2020-Jul-05 02:20 080 21.7
2020-Jul-05 02:15 351 21.7
2020-Jul-05 02:10 351 21.7
2020-Jul-05 02:05 039 21.7
2020-Jul-05 02:00 039 21.7
2020-Jul-05 01:55 039 21.7
2020-Jul-05 01:50 039 21.7
2020-Jul-05 01:45 039 21.7
2020-Jul-05 01:40 039 21.7
2020-Jul-05 01:35 038 21.7
2020-Jul-05 01:30 038 21.7
2020-Jul-05 01:25 038 21.7
2020-Jul-05 01:20 038 21.7
2020-Jul-05 01:05 039 22.2
2020-Jul-05 01:00 038 22.2
2020-Jul-05 00:55 052 22.2
2020-Jul-05 00:50 032 22.2
2020-Jul-05 00:45 065 22.2
2020-Jul-05 00:40 065 22.2
2020-Jul-05 00:35 079 22.2
2020-Jul-05 00:30 052 22.2
2020-Jul-05 00:25 052 22.2
2020-Jul-05 00:20 052 22.8
2020-Jul-05 00:15 004 22.8
2020-Jul-05 00:10 036 22.8
2020-Jul-05 00:05 017 22.8
2020-Jul-05 00:00 073 23.3
2020-Jul-04 23:55 072 23.3
2020-Jul-04 23:50 090 23.3
2020-Jul-04 23:45 164 23.9
2020-Jul-04 23:40 052 24.4
2020-Jul-04 23:35 050 24.4
2020-Jul-04 23:30 184 24.4
2020-Jul-04 23:25 130 24.4
2020-Jul-04 23:20 038 25.0
2020-Jul-04 23:15 205 25.6
2020-Jul-04 23:10 132 25.6
2020-Jul-04 23:05 184 25.6
2020-Jul-04 23:00 094 25.6
2020-Jul-04 22:55 241 25.6
2020-Jul-04 22:50 141 25.6
2020-Jul-04 22:45 178 25.6
2020-Jul-04 22:40 167 25.0
2020-Jul-04 22:35 060 1 gusting 2 25.6
2020-Jul-04 22:30 199 1 gusting 2 25.6
2020-Jul-04 22:25 122 26.1
2020-Jul-04 22:20 070 26.1
2020-Jul-04 22:15 037 2 gusting 4 25.6
2020-Jul-04 22:10 084 26.1
2020-Jul-04 22:05 080 0 gusting 4 26.1
2020-Jul-04 22:00 109 25.6
2020-Jul-04 21:55 124 26.1
2020-Jul-04 21:50 103 26.1
2020-Jul-04 21:45 227 26.1
2020-Jul-04 21:40 181 27.2
2020-Jul-04 21:35 101 26.1
2020-Jul-04 21:30 093 26.7
2020-Jul-04 21:25 188 26.7
2020-Jul-04 21:20 192 1 gusting 4 26.7
2020-Jul-04 21:15 345 26.7
2020-Jul-04 21:10 058 26.7
2020-Jul-04 21:05 173 26.7
2020-Jul-04 21:00 099 1 gusting 2 26.7
2020-Jul-04 20:55 043 0 gusting 6 26.7
2020-Jul-04 20:50 071 26.7
2020-Jul-04 20:45 158 27.2
2020-Jul-04 20:40 185 0 gusting 6 26.7
2020-Jul-04 20:35 086 27.2
2020-Jul-04 20:30 069 3 gusting 5 26.7
2020-Jul-04 20:25 057 5 gusting 5 26.7
2020-Jul-04 20:20 075 1 gusting 4 26.1
2020-Jul-04 20:15 062 3 gusting 6 26.7
2020-Jul-04 20:10 102 4 gusting 4 27.2
2020-Jul-04 20:05 045 26.7
2020-Jul-04 20:00 074 27.2
2020-Jul-04 19:55 128 0 gusting 6 27.2
2020-Jul-04 19:50 063 3 gusting 6 26.7
2020-Jul-04 19:45 061 4 gusting 9 26.1
2020-Jul-04 19:40 069 26.1
2020-Jul-04 19:35 060 0 gusting 4 27.2
2020-Jul-04 19:30 077 0 gusting 5 26.7
2020-Jul-04 19:25 089 1 gusting 6 26.7
2020-Jul-04 19:20 089 4 gusting 5 26.7
2020-Jul-04 19:15 083 4 gusting 6 26.7
2020-Jul-04 19:10 088 27.2
2020-Jul-04 19:05 105 27.8
2020-Jul-04 19:00 093 2 gusting 6 26.7
2020-Jul-04 18:55 049 2 gusting 6 27.8
2020-Jul-04 18:50 064 3 gusting 9 26.7
2020-Jul-04 18:45 082 3 gusting 6 26.7
2020-Jul-04 18:40 080 2 gusting 9 27.2
2020-Jul-04 18:35 115 1 gusting 10 27.8
2020-Jul-04 18:30 074 6 gusting 7 27.2
2020-Jul-04 18:25 085 27.2
2020-Jul-04 18:20 103 2 gusting 6 27.2
2020-Jul-04 18:15 081 4 gusting 8 26.7
2020-Jul-04 18:10 109 26.7
2020-Jul-04 18:05 159 1 gusting 7 27.8
2020-Jul-04 18:00 104 27.2
2020-Jul-04 17:55 128 1 gusting 8 27.2
2020-Jul-04 17:50 103 0 gusting 7 27.2
2020-Jul-04 17:45 161 1 gusting 8 26.7
2020-Jul-04 17:40 036 1 gusting 4 27.2
2020-Jul-04 17:35 095 4 gusting 5 26.1
2020-Jul-04 17:30 268 1 gusting 9 26.1
2020-Jul-04 17:25 104 2 gusting 8 26.1
2020-Jul-04 17:20 138 27.2
2020-Jul-04 17:15 101 26.1
2020-Jul-04 17:10 115 1 gusting 6 26.1
2020-Jul-04 17:05 027 2 gusting 6 26.7
2020-Jul-04 17:00 084 4 gusting 7 26.7